Showing default

CARTOSAT 2F, 43111

Orbit data source: Space-Track

CARTOSAT 2F, 43111 is a payload satellite owned by ISRO (IN) in SSO that was launched on Fri, 12 Jan 2018 UTC via a PSLV-XL launch vehicle from the Sirharikota (SRI). Payloads include a variety of satellites, spacecraft, and rockets equipped with specific instruments for various scientific and technological missions. These include communications satellites like Starlink; space stations such as the ISS; scientific satellites like the Hubble; Earth observation satellites from companies like Planet Labs, Umbra, and HawkEye 360; GPS; miniature CubeSats for education and research; and military/defense satellites.

Loading next visibility...
CARTOSAT 2F details
Identifier
43111, 2018-004A
Orbit
SSO
Last TLE update8 hours ago
Origin
Flag of INISRO (IN / IND)
ManufacturerISRO
MissionOperational Civil Imaging
Bus & MotorIRS-2, AOCS
Mass712 kg wet, 639 kg dry
Launch date (UTC)
2018-01-12 (7 years ago)
Launch vehicle
PSLV-XL
Launch site
Sirharikota (SRI)
Object type
Payload
Rocket body
Debris
Shape & HBRHex Cyl + 2 Pan, 8 m
Radar Cross Section9.780 m², Large (>1 m²)

Expand to show TLE details & history

TLE from 8 hours ago
0 CARTOSAT 2F
1 43111U 18004A   24361.16484885  .00010327  00000-0  49375-3 0  9997
2 43111  97.4607  57.3837 0001149  25.4273 334.7018 15.19190194385648
Epoch: 2024-12-26T03:57Z
Definitive object data (Epoch: 2024-12-26T03:57:22.94Z)
Latitude-0.00002°
Longitude-97.11005°
Altitude510.659 km
Speed7.609 km/s
True Right ascension03h 49m 32s
True Declination0° 00' 00"
Sunlit
Object was in full shadow at TLE epoch
Visualization TLE readout
Latitude-16.68362°
Longitude-94.55091°
Altitude514.38 km
Speed7.606 km/s
Apparent Right ascension01h 59m 08s
Apparent Declination-32° 57' 09"
Sunlit
Object is in full shadow
Visualization observer readout
Local Sidereal Time11:08:37
Azimuth267.879° W
Elevation-55.34°
Doppler factor1
Orbital elements
Apogee altitude506.047 km
Perigee altitude504.465 km
Semi-major axis6,883.393 km
Eccentricity0.0001149
Inclination97.4607°
RAAN57.3837°
Arg. of periapsis25.4273°
True anomaly334.69617°
Mean anomaly334.7018°
Eccentric anomaly334.69899°
Mean motion3.80049 °/min
BSTAR0.00049375
Orbital period94.72 mins
Loading maneuver chart data...

CARTOSAT 2F Visibility forecast

Observer location: undefined°, undefined

Span
Click to sort rows by Start time (UTC) header in descending order
Start Az.
Max El. time (UTC)
Max El. Az.
Max El.
End time (UTC)
End Az.
7 mins2024-12-26 17:09:12.747Z0.789° NNE2024-12-26 17:12:12.747Z314.179° NW35.939°2024-12-26 17:16:12.747Z209.975° SW
5 mins2024-12-27 03:49:12.747Z142.986° SSE2024-12-27 03:51:12.747Z45.958° ENE39.306°2024-12-27 03:54:12.747Z356.792° N
|